User: anonymous
Location: Unspecified
(0.0000°N, 0.0000°E)
Time: 15:40:35
(UTC+02:00)
Language:

ARIANE 5 R/B - Orbit

View from above orbital plane
View from above orbital plane
View from above satellite
View from above satellite

Ground track
Ground track

The orbit data is extracted from the following two-line orbital elements,

1 28379U 04027B   14204.41077038  .00000116  00000-0 -77400-3 0  6710
2 28379 007.3486 328.7501 7285668 085.9371 205.7680 02.07921959 76083
Epoch (UTC): 23 July 2014 09:51:30
Eccentricity: 0.7285668
inclination: 7.3486°
perigee height: 660 km
apogee height: 38443 km
right ascension of ascending node: 328.7501°
argument of perigee: 85.9371°
revolutions per day: 2.07921959
mean anomaly at epoch: 205.7680°
orbit number at epoch: 7608

The dashed part of the orbit path shows where the satellite is in the earth's shadow,  

DLR